Home > Weather > Frankfort > Past weeks

Flag for USA Weather for the Past 2 Weeks in Frankfort, Kentucky, USA

Now
65 °F

Passing clouds.


Feels Like: 65 °F
Forecast: 57 / 71 °F
Wind: 5 mph from Northeast

Location: Capital City Airport

Current Time: Apr 29, 2016 at 11:25:13 PM

Latest Report: Apr 29, 2016 at 9:53 PM


Visibility: 10 mi

Pressure: 30.03 "Hg

Humidity: 56%

Dew Point: 49 °F

Location of FrankfortLocation

Historic Weather in Frankfort — Graph

°F

Frankfort Temperature Yesterday

Maximum temperature yesterday: 80 °F (at 4:53 PM)
Minimum temperature yesterday: 58 °F (at 11:53 PM)
Average temperature yesterday: 68 °F

High & Low Weather Summary for the Past Weeks

 TemperatureHumidityPressure
High83 °F (Apr 18, 2:53 PM)93% (Apr 27, 5:53 AM)30.39 "Hg (Apr 27, 5:53 AM)
Low42 °F (Apr 24, 6:53 AM)19% (Apr 18, 2:53 PM)29.71 "Hg (Apr 26, 6:53 PM)
Average65 °F58%30.02 "Hg
* Reported Apr 14 8:53 PM — Apr 29 8:53 PM, Frankfort, Weather by CustomWeather, © 2016

Note: Actual official high and low records may vary slightly from our data, if they occured in-between our weather recording intervals... More about our weather records

Advertising

Frankfort Weather History for the Previous 24 Hours

Scroll right to see more
 ConditionsComfort  
Time TempWeatherWind HumidityBarometerVisibility
8:53 PM
Fri, Apr 29
64 °FSunny.No wind65%30.02 "Hg10 mi
7:53 PM67 °FSunny.No wind53%30.01 "Hg10 mi
6:53 PM68 °FSunny.3 mph51%30.01 "Hg10 mi
5:53 PM68 °FSunny.6 mph49%30.01 "Hg10 mi
4:53 PM70 °FSunny.5 mph44%29.99 "Hg10 mi
3:53 PM70 °FSunny.No wind42%30.00 "Hg10 mi
2:53 PM69 °FSunny.5 mph44%30.01 "Hg10 mi
1:53 PM68 °FSunny.6 mph45%30.02 "Hg10 mi
12:53 PM68 °FSunny.3 mph45%30.02 "Hg10 mi
11:53 AM66 °FSunny.3 mph49%30.03 "Hg10 mi
10:53 AM65 °FSunny.No wind52%30.03 "Hg10 mi
9:53 AM62 °FSunny.6 mph58%30.03 "Hg10 mi
8:53 AM59 °FSunny.7 mph72%30.02 "Hg10 mi
7:53 AM55 °FSunny.3 mph83%30.02 "Hg10 mi
6:53 AM52 °FClear.5 mph86%30.01 "Hg10 mi
5:53 AM53 °FClear.No wind86%29.98 "Hg10 mi
4:53 AM52 °FClear.No wind86%29.97 "Hg10 mi
3:53 AM55 °FClear.No wind80%29.96 "Hg10 mi
2:53 AM58 °FClear.5 mph72%29.96 "Hg10 mi
1:53 AM57 °FClear.6 mph74%29.95 "Hg10 mi
12:53 AM56 °FClear.No wind77%29.94 "Hg10 mi
11:53 PM
Thu, Apr 28
58 °FClear.No wind72%29.93 "Hg10 mi
Weather by CustomWeather, © 2016

See weather overviewHow to use our weather pages